| time (UTC) | temp F | wind direction | speed MPH | gust MPH | rain 1hr in | rain 24hr in | rain mn in | humidity % | barometer mb |
| 20260508091031 | 36 | 0.0 | 0.0 | 0.00 | 0.00 | 0.00 | 73 | 1008.3 | |
| 20260508090017 | 36 | 0.0 | 0.0 | 0.00 | 0.00 | 0.00 | 73 | 1008.3 | |
| 20260508085020 | 36 | 0.0 | 0.0 | 0.00 | 0.00 | 0.00 | 73 | 1008.2 | |
| 20260508084023 | 36 | 0.0 | 0.0 | 0.00 | 0.00 | 0.00 | 73 | 1008.1 | |
| 20260508083027 | 36 | 0.0 | 0.0 | 0.00 | 0.00 | 0.00 | 72 | 1008.0 | |
| 20260508082030 | 36 | 0.0 | 0.0 | 0.00 | 0.00 | 0.00 | 72 | 1007.8 | |
| 20260508081015 | 37 | 0.0 | 0.0 | 0.00 | 0.00 | 0.00 | 72 | 1007.6 | |
| 20260508080018 | 37 | 0.0 | 0.0 | 0.00 | 0.00 | 0.00 | 72 | 1007.2 | |
| 20260508075041 | 37 | 0.0 | 0.0 | 0.00 | 0.00 | 0.00 | 72 | 1007.1 | |
| 20260508074019 | 37 | 0.0 | 0.0 | 0.00 | 0.00 | 0.00 | 72 | 1007.0 | |
| 20260508073016 | 37 | 0.0 | 0.0 | 0.00 | 0.00 | 0.00 | 72 | 1006.9 | |
| 20260508072032 | 38 | 0.0 | 0.0 | 0.00 | 0.00 | 0.00 | 71 | 1007.2 | |
| 20260508071017 | 38 | 0.0 | 0.0 | 0.00 | 0.00 | 0.00 | 71 | 1007.2 | |
| 20260508070020 | 38 | 0.0 | 0.0 | 0.00 | 0.00 | 0.00 | 71 | 1007.2 | |
| 20260508065023 | 38 | 0.0 | 0.0 | 0.00 | 0.00 | 0.00 | 71 | 1007.1 | |
| 20260508064027 | 38 | 0.0 | 0.0 | 0.00 | 0.00 | 0.00 | 70 | 1007.1 | |
| 20260508063030 | 38 | 0.0 | 0.0 | 0.00 | 0.00 | 0.00 | 70 | 1007.1 | |
| 20260508062015 | 38 | 0.0 | 0.0 | 0.00 | 0.00 | 0.00 | 69 | 1007.2 | |
| 20260508061039 | 39 | 0.0 | 0.0 | 0.00 | 0.00 | 0.00 | 68 | 1007.4 | |
| 20260508060021 | 39 | 0.0 | 0.0 | 0.00 | 0.00 | 0.00 | 68 | 1007.5 | |
| 20260508055025 | 40 | 0.0 | 0.0 | 0.00 | 0.00 | 0.00 | 67 | 1007.5 | |
| 20260508054028 | 40 | 0.0 | 0.0 | 0.00 | 0.00 | 0.00 | 66 | 1007.5 | |
| 20260508053031 | 41 | 0.0 | 0.0 | 0.00 | 0.00 | 0.00 | 66 | 1007.5 | |
| 20260508052017 | 41 | 0.0 | 0.0 | 0.00 | 0.00 | 0.00 | 66 | 1007.7 | |
| 20260508051020 | 41 | 0.0 | 0.0 | 0.00 | 0.00 | 0.00 | 65 | 1007.8 | |
| 20260508050023 | 42 | 0.0 | 0.0 | 0.00 | 0.00 | 0.00 | 65 | 1007.8 | |
| 20260508045027 | 42 | 0.0 | 0.0 | 0.00 | 0.00 | 0.00 | 64 | 1008.0 | |
| 20260508044030 | 42 | 0.0 | 0.0 | 0.00 | 0.00 | 0.00 | 65 | 1008.0 | |
| 20260508043015 | 43 | 0.0 | 0.0 | 0.00 | 0.00 | 0.00 | 62 | 1008.0 | |
| 20260508042019 | 42 | 0.0 | 0.0 | 0.00 | 0.00 | 0.00 | 64 | 1008.2 | |
| 20260508041022 | 43 | 0.0 | 0.0 | 0.00 | 0.00 | 0.00 | 64 | 1007.9 | |
| 20260508040019 | 44 | 0.0 | 0.0 | 0.00 | 0.00 | 0.00 | 64 | 1007.9 | |
| 20260508035016 | 44 | 0.0 | 0.0 | 0.00 | 0.00 | 0.00 | 62 | 1007.8 | |
| 20260508034032 | 44 | 0.0 | 0.0 | 0.00 | 0.00 | 0.00 | 64 | 1007.8 | |
| 20260508033017 | 45 | 0.0 | 0.0 | 0.00 | 0.00 | 0.00 | 61 | 1007.9 | |
| 20260508032020 | 45 | 0.0 | 0.0 | 0.00 | 0.00 | 0.00 | 61 | 1007.8 | |
| 20260508031023 | 45 | 0.0 | 0.0 | 0.00 | 0.00 | 0.00 | 59 | 1007.9 | |
| 20260508030027 | 45 | 0.0 | 0.0 | 0.00 | 0.00 | 0.00 | 61 | 1007.7 | |
| 20260508025030 | 46 | 0.0 | 0.0 | 0.00 | 0.00 | 0.00 | 60 | 1007.6 | |
| 20260508024015 | 45 | 0.0 | 0.0 | 0.00 | 0.00 | 0.00 | 58 | 1007.6 | |
| 20260508023019 | 45 | 0.0 | 0.0 | 0.00 | 0.00 | 0.00 | 57 | 1007.7 | |
| 20260508022022 | 47 | 0.0 | 0.0 | 0.00 | 0.00 | 0.00 | 55 | 1007.5 | |
| 20260508021045 | 47 | 0.0 | 0.0 | 0.00 | 0.00 | 0.00 | 53 | 1007.5 | |
| 20260508020049 | 47 | 0.0 | 0.0 | 0.00 | 0.00 | 0.00 | 52 | 1007.4 | |
| 20260508015032 | 48 | 0.0 | 0.0 | 0.00 | 0.00 | 0.00 | 51 | 1007.4 | |
| 20260508014017 | 49 | 0.0 | 0.0 | 0.00 | 0.00 | 0.00 | 49 | 1007.2 | |
| 20260508013020 | 50 | 0.0 | 0.0 | 0.00 | 0.00 | 0.00 | 50 | 1006.9 | |
| 20260508012023 | 50 | 0.0 | 0.0 | 0.00 | 0.00 | 0.00 | 46 | 1006.8 | |
| 20260508011026 | 51 | 0.0 | 0.0 | 0.00 | 0.00 | 0.00 | 44 | 1006.8 | |
| 20260508010030 | 52 | 0.0 | 0.0 | 0.00 | 0.00 | 0.00 | 43 | 1006.5 | |
| 20260508005015 | 53 | 0.0 | 0.0 | 0.00 | 0.00 | 0.00 | 41 | 1006.4 | |
| 20260508004018 | 54 | 225 | 0.0 | 1.0 | 0.00 | 0.00 | 0.00 | 36 | 1006.3 |
| 20260508003022 | 54 | 283 | 1.0 | 3.0 | 0.00 | 0.00 | 0.00 | 36 | 1006.3 |
| 20260508002019 | 54 | 315 | 0.0 | 2.0 | 0.00 | 0.00 | 0.00 | 35 | 1006.3 |
| 20260508001017 | 55 | 0.0 | 0.0 | 0.00 | 0.00 | 0.00 | 34 | 1006.2 | |
| 20260508000032 | 55 | 272 | 0.0 | 3.0 | 0.00 | 0.00 | 0.00 | 34 | 1005.9 |
| 20260507235017 | 56 | 0.0 | 1.0 | 0.00 | 0.00 | 0.00 | 32 | 1006.1 | |
| 20260507234020 | 57 | 2 | 1.0 | 5.0 | 0.00 | 0.00 | 0.00 | 31 | 1006.0 |
| 20260507233023 | 58 | 0.0 | 0.0 | 0.00 | 0.00 | 0.00 | 32 | 1005.8 | |
| 20260507232027 | 58 | 116 | 1.0 | 7.0 | 0.00 | 0.00 | 0.00 | 30 | 1005.6 |
| 20260507231030 | 59 | 241 | 1.0 | 4.0 | 0.00 | 0.00 | 0.00 | 29 | 1005.6 |
| 20260507230015 | 60 | 228 | 1.0 | 5.0 | 0.00 | 0.00 | 0.00 | 28 | 1005.6 |
| 20260507225018 | 61 | 308 | 2.0 | 6.0 | 0.00 | 0.00 | 0.00 | 26 | 1005.5 |
| 20260507224022 | 63 | 212 | 1.0 | 5.0 | 0.00 | 0.00 | 0.00 | 26 | 1005.3 |
| 20260507223025 | 62 | 247 | 2.0 | 6.0 | 0.00 | 0.00 | 0.00 | 26 | 1005.1 |
| 20260507222028 | 63 | 286 | 2.0 | 6.0 | 0.00 | 0.00 | 0.00 | 26 | 1005.1 |
| 20260507221032 | 63 | 321 | 1.0 | 5.0 | 0.00 | 0.00 | 0.00 | 26 | 1005.1 |
| 20260507220017 | 63 | 169 | 1.0 | 3.0 | 0.00 | 0.00 | 0.00 | 25 | 1005.0 |
| 20260507215020 | 65 | 205 | 4.0 | 9.0 | 0.00 | 0.00 | 0.00 | 25 | 1004.9 |
| 20260507214044 | 65 | 207 | 3.0 | 9.0 | 0.00 | 0.00 | 0.00 | 24 | 1004.8 |
| 20260507213026 | 64 | 336 | 2.0 | 8.0 | 0.00 | 0.00 | 0.00 | 26 | 1004.8 |
| 20260507212030 | 66 | 321 | 2.0 | 6.0 | 0.00 | 0.00 | 0.00 | 25 | 1004.8 |
| 20260507211015 | 65 | 237 | 1.0 | 7.0 | 0.00 | 0.00 | 0.00 | 25 | 1004.9 |
| 20260507210018 | 65 | 336 | 2.0 | 5.0 | 0.00 | 0.00 | 0.00 | 25 | 1004.8 |
| 20260507205022 | 65 | 241 | 3.0 | 6.0 | 0.00 | 0.00 | 0.00 | 25 | 1004.7 |
| 20260507204019 | 66 | 300 | 6.0 | 12.0 | 0.00 | 0.00 | 0.00 | 25 | 1004.7 |
| 20260507203016 | 65 | 341 | 2.0 | 5.0 | 0.00 | 0.00 | 0.00 | 25 | 1004.6 |
| 20260507202051 | 65 | 237 | 3.0 | 11.0 | 0.00 | 0.00 | 0.00 | 24 | 1004.8 |
| 20260507201017 | 66 | 254 | 5.0 | 10.0 | 0.00 | 0.00 | 0.00 | 24 | 1004.7 |
| 20260507200020 | 66 | 250 | 4.0 | 10.0 | 0.00 | 0.00 | 0.00 | 25 | 1004.9 |
| 20260507195023 | 65 | 239 | 5.0 | 9.0 | 0.00 | 0.00 | 0.00 | 26 | 1005.0 |
| 20260507194046 | 65 | 266 | 5.0 | 9.0 | 0.00 | 0.00 | 0.00 | 25 | 1005.1 |
| 20260507193030 | 66 | 300 | 4.0 | 7.0 | 0.00 | 0.00 | 0.00 | 26 | 1005.1 |
| 20260507192035 | 65 | 347 | 4.0 | 7.0 | 0.00 | 0.00 | 0.00 | 25 | 1005.2 |
| 20260507191018 | 65 | 277 | 4.0 | 7.0 | 0.00 | 0.00 | 0.00 | 28 | 1005.3 |
| 20260507190021 | 62 | 20 | 1.0 | 4.0 | 0.00 | 0.00 | 0.00 | 30 | 1005.5 |
| 20260507185025 | 64 | 275 | 5.0 | 7.0 | 0.00 | 0.00 | 0.00 | 29 | 1005.5 |
| 20260507184028 | 65 | 4 | 4.0 | 7.0 | 0.00 | 0.00 | 0.00 | 29 | 1005.6 |
| 20260507183031 | 65 | 214 | 5.0 | 10.0 | 0.00 | 0.00 | 0.00 | 28 | 1005.6 |
| 20260507182036 | 65 | 270 | 3.0 | 8.0 | 0.00 | 0.00 | 0.00 | 30 | 1005.7 |
| 20260507181020 | 64 | 306 | 3.0 | 8.0 | 0.00 | 0.00 | 0.00 | 29 | 1005.8 |
| 20260507180043 | 65 | 312 | 4.0 | 7.0 | 0.00 | 0.00 | 0.00 | 30 | 1005.5 |
| 20260507175026 | 64 | 300 | 5.0 | 10.0 | 0.00 | 0.00 | 0.00 | 30 | 1005.6 |
| 20260507174029 | 64 | 233 | 4.0 | 9.0 | 0.00 | 0.00 | 0.00 | 31 | 1005.6 |
| 20260507173014 | 64 | 221 | 5.0 | 9.0 | 0.00 | 0.00 | 0.00 | 30 | 1005.6 |
| 20260507172018 | 64 | 200 | 6.0 | 9.0 | 0.00 | 0.00 | 0.00 | 31 | 1005.7 |
| 20260507171021 | 64 | 199 | 2.0 | 6.0 | 0.00 | 0.00 | 0.00 | 31 | 1005.9 |
| 20260507170018 | 64 | 29 | 3.0 | 6.0 | 0.00 | 0.00 | 0.00 | 30 | 1006.2 |
| 20260507165036 | 63 | 265 | 4.0 | 8.0 | 0.00 | 0.00 | 0.00 | 32 | 1006.1 |
| 20260507164031 | 62 | 320 | 4.0 | 11.0 | 0.00 | 0.00 | 0.00 | 33 | 1006.1 |
| 20260507163016 | 63 | 219 | 4.0 | 8.0 | 0.00 | 0.00 | 0.00 | 34 | 1006.1 |
| 20260507162020 | 63 | 10 | 1.0 | 5.0 | 0.00 | 0.00 | 0.00 | 37 | 1006.3 |
| 20260507161023 | 61 | 239 | 4.0 | 8.0 | 0.00 | 0.00 | 0.00 | 40 | 1006.5 |
| 20260507160026 | 61 | 268 | 4.0 | 7.0 | 0.00 | 0.00 | 0.00 | 45 | 1006.5 |
| 20260507155029 | 60 | 257 | 4.0 | 8.0 | 0.00 | 0.00 | 0.00 | 46 | 1006.6 |
| 20260507154032 | 58 | 320 | 1.0 | 4.0 | 0.00 | 0.00 | 0.00 | 50 | 1006.6 |
| 20260507153038 | 61 | 315 | 0.0 | 2.0 | 0.00 | 0.00 | 0.00 | 47 | 1006.7 |
| 20260507152021 | 59 | 248 | 2.0 | 6.0 | 0.00 | 0.00 | 0.00 | 49 | 1006.9 |
| 20260507151024 | 58 | 257 | 4.0 | 8.0 | 0.00 | 0.00 | 0.00 | 48 | 1006.9 |
| 20260507150027 | 58 | 247 | 5.0 | 8.0 | 0.00 | 0.00 | 0.00 | 49 | 1007.0 |
| 20260507145031 | 59 | 221 | 1.0 | 4.0 | 0.00 | 0.00 | 0.00 | 49 | 1007.0 |
| 20260507144016 | 60 | 220 | 2.0 | 6.0 | 0.00 | 0.00 | 0.00 | 46 | 1006.9 |
| 20260507143059 | 60 | 325 | 2.0 | 8.0 | 0.00 | 0.00 | 0.00 | 47 | 1006.9 |
| 20260507142023 | 58 | 21 | 3.0 | 8.0 | 0.00 | 0.00 | 0.00 | 46 | 1006.9 |
| 20260507141026 | 58 | 10 | 1.0 | 4.0 | 0.00 | 0.00 | 0.00 | 48 | 1006.9 |
| 20260507140029 | 58 | 334 | 4.0 | 7.0 | 0.00 | 0.00 | 0.00 | 49 | 1006.8 |
| 20260507135026 | 57 | 1 | 2.0 | 5.0 | 0.00 | 0.00 | 0.00 | 48 | 1006.9 |
| 20260507134018 | 56 | 27 | 1.0 | 4.0 | 0.00 | 0.00 | 0.00 | 52 | 1007.0 |
| 20260507133021 | 55 | 260 | 2.0 | 5.0 | 0.00 | 0.00 | 0.00 | 53 | 1007.1 |
| 20260507132018 | 55 | 206 | 1.0 | 4.0 | 0.00 | 0.00 | 0.00 | 55 | 1007.3 |
| 20260507131035 | 54 | 237 | 1.0 | 3.0 | 0.00 | 0.00 | 0.00 | 56 | 1007.3 |
| 20260507130030 | 53 | 230 | 1.0 | 4.0 | 0.00 | 0.00 | 0.00 | 58 | 1007.4 |
| 20260507125016 | 53 | 180 | 2.0 | 6.0 | 0.00 | 0.00 | 0.00 | 57 | 1007.4 |
| 20260507124039 | 52 | 180 | 1.0 | 4.0 | 0.00 | 0.00 | 0.00 | 60 | 1007.5 |
| 20260507123042 | 51 | 255 | 1.0 | 5.0 | 0.00 | 0.00 | 0.00 | 64 | 1007.6 |
| 20260507122025 | 51 | 355 | 1.0 | 5.0 | 0.00 | 0.00 | 0.00 | 66 | 1007.6 |
| 20260507121109 | 50 | 205 | 1.0 | 4.0 | 0.00 | 0.00 | 0.00 | 66 | 1007.6 |
| 20260507120032 | 51 | 310 | 1.0 | 6.0 | 0.00 | 0.00 | 0.00 | 66 | 1007.5 |
| 20260507115018 | 51 | 228 | 1.0 | 5.0 | 0.00 | 0.00 | 0.00 | 66 | 1007.3 |
| 20260507114021 | 50 | 0.0 | 2.0 | 0.00 | 0.00 | 0.00 | 69 | 1007.2 | |
| 20260507113044 | 49 | 0.0 | 0.0 | 0.00 | 0.00 | 0.00 | 69 | 1007.1 | |
| 20260507112027 | 49 | 0.0 | 0.0 | 0.00 | 0.00 | 0.00 | 69 | 1007.2 | |
| 20260507111030 | 49 | 315 | 0.0 | 2.0 | 0.00 | 0.00 | 0.00 | 69 | 1007.4 |
| 20260507110016 | 48 | 0.0 | 1.0 | 0.00 | 0.00 | 0.00 | 70 | 1007.1 | |
| 20260507105019 | 48 | 0.0 | 0.0 | 0.00 | 0.00 | 0.00 | 70 | 1006.9 | |
| 20260507104022 | 48 | 293 | 1.0 | 4.0 | 0.00 | 0.00 | 0.00 | 70 | 1006.8 |
| 20260507103025 | 48 | 0.0 | 0.0 | 0.00 | 0.00 | 0.00 | 71 | 1006.8 | |
| 20260507102029 | 48 | 0.0 | 0.0 | 0.00 | 0.00 | 0.00 | 72 | 1007.0 | |
| 20260507101046 | 48 | 0.0 | 0.0 | 0.00 | 0.00 | 0.00 | 72 | 1006.7 | |
| 20260507100017 | 48 | 279 | 1.0 | 5.0 | 0.00 | 0.00 | 0.00 | 73 | 1007.0 |
| 20260507095020 | 48 | 293 | 1.0 | 4.0 | 0.00 | 0.00 | 0.00 | 74 | 1006.9 |
| 20260507094038 | 48 | 0.0 | 0.0 | 0.00 | 0.00 | 0.00 | 75 | 1006.8 | |
| 20260507093015 | 48 | 0.0 | 0.0 | 0.00 | 0.00 | 0.00 | 76 | 1006.7 | |
| 20260507092030 | 48 | 0.0 | 0.0 | 0.00 | 0.00 | 0.00 | 76 | 1007.1 |